Flag for Netherlands Weather past 2 weeks in Emmen, Netherlands

Now
70 °F

Mild.


Feels Like: 70 °F
Forecast: 56 / 63 °F
Wind: 6 mph from Southwest

Location: Meppen

Current Time: Jul 7, 2015 at 10:47:53 PM

Latest Report: Jul 7, 2015 at 10:00 PM


Visibility: 6 mi

Pressure: 29.68 "Hg

Humidity: 62%

Dew point: 56 °F

Location of EmmenLocation

Historic Weather in Emmen — Graph

°F

Emmen temperature yesterday

Maximum temperature yesterday: 72 °F (at 4:00 PM)
Minimum temperature yesterday: 58 °F (at 6:00 AM)
Average temperature yesterday: 65 °F

Past Weeks' High & Low Weather Summary

 TemperatureHumidityPressure
High96 °F (Jul 2, 6:00 PM)95% (Jun 23, 3:00 AM)30.27 "Hg (Jun 23, 3:00 AM)
Low46 °F (Jun 23, 4:00 AM)27% (Jul 2, 4:00 PM)29.68 "Hg (Jun 22, 10:00 PM)
Average67 °F68%30.07 "Hg
* Reported Jun 22 9:00 PM — Jul 7 9:00 PM, Emmen, Weather by CustomWeather, © 2015

Note: Actual official high and low records may vary slightly from our data, if they occured in-between our weather recording intervals... More about our weather records

Advertising

Emmen weather history for previous 24 hours

 ConditionsComfort  
Time TempWeatherWind HumidityBarometerVisibility
9:00 PM
Tue, Jul 7
71 °FMild.6 mph59%29.69 "Hg5 mi
8:00 PM75 °FMild.6 mph46%29.68 "Hg6 mi
7:00 PM77 °FWarm.7 mph44%29.68 "Hg6 mi
6:00 PM80 °FWarm.3 mph41%29.69 "Hg6 mi
4:00 PM78 °FOvercast.2 mph46%29.72 "Hg28 mi
3:00 PM80 °FOvercast.2 mph39%29.76 "Hg28 mi
2:00 PM81 °FOvercast.2 mph33%29.78 "Hg28 mi
1:00 PM82 °FPartly sunny.3 mph34%29.81 "Hg28 mi
12:00 PM78 °FSprinkles. Partly sunny.2 mph41%29.83 "Hg28 mi
10:00 AM74 °FPassing clouds.3 mph48%29.88 "Hg25 mi
9:00 AM70 °FPassing clouds.2 mph57%29.90 "Hg22 mi
8:00 AM64 °FPassing clouds.1 mph69%29.92 "Hg22 mi
7:00 AM58 °FPassing clouds.N/A93%29.94 "Hg19 mi
6:00 AM52 °FFog.N/A95%29.96 "Hg17 mi
4:00 AM52 °FCool.1 mph94%30.00 "Hg0 mi
3:00 AM53 °FCool.1 mph94%30.02 "Hg2 mi
1:00 AM55 °FCool.1 mph89%30.05 "Hg6 mi
12:00 AM57 °FCool.1 mph85%30.06 "Hg5 mi
10:00 PM
Mon, Jul 6
63 °FMild.N/A69%30.08 "Hg6 mi
Weather by CustomWeather, © 2015

See weather overviewHow to use our weather pages